Time,TemperatureF,DewpointF,PressureIn,WindDirection,WindDirectionDegrees,WindSpeedMPH,WindSpeedGustMPH,Humidity,HourlyPrecipIn,Conditions,Clouds,dailyrainin,SoftwareType,DateUTC
2013-02-05 00:03:00,19.0,2.0,-100.00,West,265,2.0,7.0,46,0.00,,,-99.99,,2013-02-05 05:03:00,
2013-02-05 00:12:00,19.0,1.0,-100.00,WNW,290,2.0,7.0,45,0.00,,,-99.99,,2013-02-05 05:12:00,
2013-02-05 00:22:00,19.0,2.0,-100.00,WNW,285,4.0,7.0,46,0.00,,,-99.99,,2013-02-05 05:22:00,
2013-02-05 00:32:00,18.0,2.0,-100.00,West,270,2.0,7.0,47,0.00,,,-99.99,,2013-02-05 05:32:00,
2013-02-05 00:42:00,18.0,2.0,-100.00,West,260,2.0,7.0,47,0.00,,,-99.99,,2013-02-05 05:42:00,
2013-02-05 00:52:00,18.0,2.0,-100.00,WSW,255,3.0,7.0,48,0.00,,,-99.99,,2013-02-05 05:52:00,
2013-02-05 01:02:00,18.0,2.0,-100.00,West,270,2.0,7.0,48,0.00,,,-99.99,,2013-02-05 06:02:00,
2013-02-05 01:11:00,18.0,2.0,-100.00,WNW,290,2.0,7.0,48,0.00,,,-99.99,,2013-02-05 06:11:00,
2013-02-05 01:22:00,18.0,2.0,-100.00,SW,235,3.0,8.0,49,0.00,,,-99.99,,2013-02-05 06:22:00,
2013-02-05 01:32:00,18.0,2.0,-100.00,WSW,245,3.0,9.0,49,0.00,,,-99.99,,2013-02-05 06:32:00,
2013-02-05 01:42:00,18.0,2.0,-100.00,West,260,3.0,7.0,49,0.00,,,-99.99,,2013-02-05 06:42:00,
2013-02-05 01:52:00,18.0,2.0,-100.00,West,265,3.0,8.0,49,0.00,,,-99.99,,2013-02-05 06:52:00,
2013-02-05 02:01:00,18.0,3.0,-100.00,West,280,2.0,6.0,50,0.00,,,-99.99,,2013-02-05 07:01:00,
2013-02-05 02:11:00,18.0,3.0,-100.00,WNW,295,2.0,6.0,50,0.00,,,-99.99,,2013-02-05 07:11:00,
2013-02-05 02:22:00,18.0,3.0,-100.00,West,275,4.0,7.0,50,0.00,,,-99.99,,2013-02-05 07:22:00,
2013-02-05 02:32:00,18.0,3.0,-100.00,NW,305,4.0,7.0,51,0.00,,,-99.99,,2013-02-05 07:32:00,
2013-02-05 02:42:00,18.0,4.0,-100.00,WNW,290,4.0,8.0,51,0.00,,,-99.99,,2013-02-05 07:42:00,
2013-02-05 02:52:00,19.0,4.0,-100.00,WNW,285,4.0,10.0,51,0.00,,,-99.99,,2013-02-05 07:52:00,
2013-02-05 03:01:00,19.0,3.0,-100.00,WNW,285,2.0,12.0,50,0.00,,,-99.99,,2013-02-05 08:01:00,
2013-02-05 03:11:00,19.0,4.0,-100.00,West,275,4.0,9.0,51,0.00,,,-99.99,,2013-02-05 08:11:00,
2013-02-05 03:22:00,19.0,4.0,-100.00,West,260,4.0,8.0,51,0.00,,,-99.99,,2013-02-05 08:22:00,
2013-02-05 03:32:00,19.0,4.0,-100.00,NW,315,2.0,7.0,52,0.00,,,-99.99,,2013-02-05 08:32:00,
2013-02-05 03:42:00,19.0,4.0,-100.00,WSW,240,2.0,9.0,52,0.00,,,-99.99,,2013-02-05 08:42:00,
2013-02-05 03:52:00,19.0,5.0,-100.00,WSW,255,3.0,7.0,52,0.00,,,-99.99,,2013-02-05 08:52:00,
2013-02-05 04:02:00,19.0,5.0,-100.00,West,280,3.0,6.0,52,0.00,,,-99.99,,2013-02-05 09:02:00,
2013-02-05 04:12:00,19.0,5.0,-100.00,WNW,285,4.0,7.0,52,0.00,,,-99.99,,2013-02-05 09:12:00,
2013-02-05 04:22:00,19.0,5.0,-100.00,WNW,290,1.0,5.0,53,0.00,,,-99.99,,2013-02-05 09:22:00,
2013-02-05 04:32:00,19.0,5.0,-100.00,WNW,285,2.0,6.0,52,0.00,,,-99.99,,2013-02-05 09:32:00,
2013-02-05 04:42:00,19.0,5.0,-100.00,West,275,3.0,6.0,52,0.00,,,-99.99,,2013-02-05 09:42:00,
2013-02-05 04:51:00,20.0,5.0,-100.00,WNW,300,1.0,6.0,52,0.00,,,-99.99,,2013-02-05 09:51:00,
2013-02-05 05:02:00,20.0,5.0,-100.00,WNW,285,2.0,6.0,52,0.00,,,-99.99,,2013-02-05 10:02:00,
2013-02-05 05:11:00,20.0,5.0,-100.00,WNW,300,3.0,5.0,52,0.00,,,-99.99,,2013-02-05 10:11:00,
2013-02-05 05:21:00,20.0,5.0,-100.00,WNW,290,2.0,4.0,53,0.00,,,-99.99,,2013-02-05 10:21:00,
2013-02-05 05:32:00,20.0,5.0,-100.00,West,275,2.0,6.0,52,0.00,,,-99.99,,2013-02-05 10:32:00,
2013-02-05 05:42:00,20.0,5.0,-100.00,NNW,330,2.0,6.0,52,0.00,,,-99.99,,2013-02-05 10:42:00,
2013-02-05 05:52:00,20.0,6.0,-100.00,NW,325,2.0,4.0,53,0.00,,,-99.99,,2013-02-05 10:52:00,
2013-02-05 06:01:00,20.0,5.0,-100.00,NNW,340,1.0,4.0,52,0.00,,,-99.99,,2013-02-05 11:01:00,
2013-02-05 06:11:00,20.0,6.0,-100.00,NW,320,2.0,4.0,52,0.00,,,-99.99,,2013-02-05 11:11:00,
2013-02-05 06:22:00,20.0,6.0,-100.00,WNW,290,1.0,4.0,53,0.00,,,-99.99,,2013-02-05 11:22:00,
2013-02-05 06:32:00,20.0,6.0,-100.00,NW,315,1.0,3.0,53,0.00,,,-99.99,,2013-02-05 11:32:00,
2013-02-05 06:42:00,20.0,6.0,-100.00,WNW,290,2.0,4.0,53,0.00,,,-99.99,,2013-02-05 11:42:00,
2013-02-05 06:52:00,20.0,6.0,-100.00,West,275,1.0,4.0,53,0.00,,,-99.99,,2013-02-05 11:52:00,
2013-02-05 07:02:00,20.0,6.0,-100.00,WSW,255,1.0,2.0,54,0.00,,,-99.99,,2013-02-05 12:02:00,
2013-02-05 07:12:00,20.0,6.0,-100.00,WSW,255,1.0,3.0,53,0.00,,,-99.99,,2013-02-05 12:12:00,
2013-02-05 07:22:00,20.0,6.0,-100.00,NW,315,1.0,4.0,53,0.00,,,-99.99,,2013-02-05 12:22:00,
2013-02-05 07:32:00,20.0,6.0,-100.00,SSW,200,1.0,2.0,54,0.00,,,-99.99,,2013-02-05 12:32:00,
2013-02-05 07:42:00,20.0,6.0,-100.00,South,180,1.0,3.0,54,0.00,,,-99.99,,2013-02-05 12:42:00,
2013-02-05 07:52:00,21.0,6.0,-100.00,WNW,295,2.0,4.0,53,0.00,,,-99.99,,2013-02-05 12:52:00,
2013-02-05 08:02:00,21.0,7.0,-100.00,West,270,1.0,4.0,53,0.00,,,-99.99,,2013-02-05 13:02:00,
2013-02-05 08:12:00,21.0,7.0,-100.00,West,270,1.0,3.0,53,0.00,,,-99.99,,2013-02-05 13:12:00,
2013-02-05 08:22:00,21.0,7.0,-100.00,NW,305,1.0,3.0,53,0.00,,,-99.99,,2013-02-05 13:22:00,
2013-02-05 08:32:00,21.0,7.0,-100.00,South,180,1.0,3.0,53,0.00,,,-99.99,,2013-02-05 13:32:00,
2013-02-05 08:42:00,22.0,7.0,-100.00,NW,305,1.0,3.0,52,0.00,,,-99.99,,2013-02-05 13:42:00,
2013-02-05 08:52:00,21.0,6.0,-100.00,North,0,1.0,4.0,51,0.00,,,-99.99,,2013-02-05 13:52:00,
2013-02-05 09:01:00,22.0,5.0,-100.00,NW,320,2.0,4.0,48,0.00,,,-99.99,,2013-02-05 14:01:00,
2013-02-05 09:12:00,22.0,5.0,-100.00,North,0,1.0,5.0,47,0.00,,,-99.99,,2013-02-05 14:12:00,
2013-02-05 09:22:00,22.0,5.0,-100.00,North,350,2.0,9.0,47,0.00,,,-99.99,,2013-02-05 14:22:00,
2013-02-05 09:32:00,22.0,5.0,-100.00,NNW,330,2.0,6.0,46,0.00,,,-99.99,,2013-02-05 14:32:00,
2013-02-05 09:42:00,22.0,4.0,-100.00,NNW,330,3.0,7.0,45,0.00,,,-99.99,,2013-02-05 14:42:00,
2013-02-05 09:52:00,23.0,4.0,-100.00,NNW,340,2.0,6.0,44,0.00,,,-99.99,,2013-02-05 14:52:00,
2013-02-05 10:02:00,23.0,4.0,-100.00,NW,320,2.0,6.0,44,0.00,,,-99.99,,2013-02-05 15:02:00,
2013-02-05 10:11:00,23.0,4.0,-100.00,NW,305,1.0,4.0,43,0.00,,,-99.99,,2013-02-05 15:11:00,
2013-02-05 10:22:00,23.0,4.0,-100.00,NNW,345,2.0,7.0,42,0.00,,,-99.99,,2013-02-05 15:22:00,
2013-02-05 10:32:00,24.0,4.0,-100.00,NNE,15,2.0,6.0,41,0.00,,,-99.99,,2013-02-05 15:32:00,
2013-02-05 10:42:00,25.0,4.0,-100.00,NE,50,2.0,6.0,40,0.00,,,-99.99,,2013-02-05 15:42:00,
2013-02-05 10:52:00,24.0,4.0,-100.00,WNW,290,3.0,9.0,39,0.00,,,-99.99,,2013-02-05 15:52:00,
2013-02-05 11:02:00,24.0,3.0,-100.00,WNW,285,2.0,9.0,39,0.00,,,-99.99,,2013-02-05 16:02:00,
2013-02-05 11:12:00,24.0,3.0,-100.00,NNE,20,2.0,11.0,39,0.00,,,-99.99,,2013-02-05 16:12:00,
2013-02-05 11:22:00,25.0,3.0,-100.00,North,355,3.0,10.0,39,0.00,,,-99.99,,2013-02-05 16:22:00,
2013-02-05 11:32:00,26.0,4.0,-100.00,West,275,3.0,8.0,37,0.00,,,-99.99,,2013-02-05 16:32:00,
2013-02-05 11:42:00,25.0,4.0,-100.00,North,0,2.0,7.0,38,0.00,,,-99.99,,2013-02-05 16:42:00,
2013-02-05 11:52:00,25.0,4.0,-100.00,NW,315,4.0,9.0,38,0.00,,,-99.99,,2013-02-05 16:52:00,
2013-02-05 12:01:00,26.0,4.0,-100.00,South,175,1.0,4.0,37,0.00,,,-99.99,,2013-02-05 17:01:00,
2013-02-05 12:12:00,27.0,4.0,-100.00,North,0,1.0,6.0,38,0.00,,,-99.99,,2013-02-05 17:12:00,
2013-02-05 12:22:00,26.0,5.0,-100.00,North,10,3.0,7.0,39,0.00,,,-99.99,,2013-02-05 17:22:00,
2013-02-05 12:32:00,26.0,5.0,-100.00,East,90,1.0,4.0,40,0.00,,,-99.99,,2013-02-05 17:32:00,
2013-02-05 12:42:00,27.0,5.0,-100.00,East,90,2.0,5.0,38,0.00,,,-99.99,,2013-02-05 17:42:00,
2013-02-05 12:52:00,27.0,5.0,-100.00,ENE,65,3.0,6.0,39,0.00,,,-99.99,,2013-02-05 17:52:00,
2013-02-05 13:02:00,27.0,6.0,-100.00,South,180,1.0,5.0,39,0.00,,,-99.99,,2013-02-05 18:02:00,
2013-02-05 13:12:00,27.0,5.0,-100.00,West,260,1.0,6.0,38,0.00,,,-99.99,,2013-02-05 18:12:00,
2013-02-05 13:22:00,27.0,5.0,-100.00,North,355,3.0,7.0,39,0.00,,,-99.99,,2013-02-05 18:22:00,
2013-02-05 13:32:00,27.0,5.0,-100.00,NNW,335,2.0,5.0,38,0.00,,,-99.99,,2013-02-05 18:32:00,
2013-02-05 13:42:00,27.0,6.0,-100.00,North,355,1.0,4.0,39,0.00,,,-99.99,,2013-02-05 18:42:00,
2013-02-05 13:52:00,28.0,6.0,-100.00,SSW,205,1.0,3.0,38,0.00,,,-99.99,,2013-02-05 18:52:00,
2013-02-05 14:02:00,27.0,6.0,-100.00,East,90,1.0,5.0,39,0.00,,,-99.99,,2013-02-05 19:02:00,
2013-02-05 14:11:00,27.0,6.0,-100.00,South,180,6.0,7.0,39,0.00,,,-99.99,,2013-02-05 19:11:00,
2013-02-05 14:22:00,28.0,6.0,-100.00,WSW,250,4.0,6.0,38,0.00,,,-99.99,,2013-02-05 19:22:00,
2013-02-05 14:32:00,28.0,6.0,-100.00,SSE,165,2.0,5.0,38,0.00,,,-99.99,,2013-02-05 19:32:00,
2013-02-05 14:42:00,29.0,6.0,-100.00,SSE,160,2.0,7.0,37,0.00,,,-99.99,,2013-02-05 19:42:00,
2013-02-05 14:52:00,29.0,6.0,-100.00,SE,145,2.0,6.0,38,0.00,,,-99.99,,2013-02-05 19:52:00,
2013-02-05 15:02:00,29.0,6.0,-100.00,NNW,335,1.0,5.0,37,0.00,,,-99.99,,2013-02-05 20:02:00,
2013-02-05 15:11:00,29.0,7.0,-100.00,South,185,3.0,9.0,39,0.00,,,-99.99,,2013-02-05 20:11:00,
2013-02-05 15:22:00,30.0,7.0,-100.00,ENE,65,1.0,7.0,37,0.00,,,-99.99,,2013-02-05 20:22:00,
2013-02-05 15:32:00,29.0,6.0,-100.00,SSW,205,4.0,10.0,38,0.00,,,-99.99,,2013-02-05 20:32:00,
2013-02-05 15:42:00,29.0,6.0,-100.00,South,190,4.0,7.0,37,0.00,,,-99.99,,2013-02-05 20:42:00,
2013-02-05 15:52:00,29.0,7.0,-100.00,South,185,2.0,6.0,37,0.00,,,-99.99,,2013-02-05 20:52:00,
2013-02-05 16:02:00,29.0,6.0,-100.00,South,180,6.0,10.0,38,0.00,,,-99.99,,2013-02-05 21:02:00,
2013-02-05 16:11:00,29.0,7.0,-100.00,South,190,4.0,7.0,39,0.00,,,-99.99,,2013-02-05 21:11:00,
2013-02-05 16:22:00,29.0,7.0,-100.00,South,180,6.0,9.0,39,0.00,,,-99.99,,2013-02-05 21:22:00,
2013-02-05 16:32:00,28.0,7.0,-100.00,WSW,245,3.0,7.0,40,0.00,,,-99.99,,2013-02-05 21:32:00,
2013-02-05 16:42:00,28.0,7.0,-100.00,South,175,3.0,7.0,40,0.00,,,-99.99,,2013-02-05 21:42:00,
2013-02-05 16:52:00,28.0,7.0,-100.00,SSW,195,4.0,7.0,40,0.00,,,-99.99,,2013-02-05 21:52:00,
2013-02-05 17:02:00,27.0,8.0,-100.00,ESE,105,1.0,6.0,43,0.00,,,-99.99,,2013-02-05 22:02:00,
2013-02-05 17:12:00,26.0,8.0,-100.00,East,85,1.0,4.0,44,0.00,,,-99.99,,2013-02-05 22:12:00,
2013-02-05 17:22:00,26.0,8.0,-100.00,SSE,160,1.0,4.0,46,0.00,,,-99.99,,2013-02-05 22:22:00,
2013-02-05 17:32:00,26.0,8.0,-100.00,SE,125,1.0,6.0,46,0.00,,,-99.99,,2013-02-05 22:32:00,
2013-02-05 17:42:00,26.0,9.0,-100.00,East,80,1.0,5.0,48,0.00,,,-99.99,,2013-02-05 22:42:00,
2013-02-05 17:52:00,25.0,9.0,-100.00,East,90,1.0,6.0,48,0.00,,,-99.99,,2013-02-05 22:52:00,
2013-02-05 18:02:00,25.0,9.0,-100.00,ESE,110,1.0,6.0,49,0.00,,,-99.99,,2013-02-05 23:02:00,
2013-02-05 18:11:00,25.0,9.0,-100.00,SSE,165,1.0,4.0,50,0.00,,,-99.99,,2013-02-05 23:11:00,
2013-02-05 18:22:00,26.0,9.0,-100.00,South,180,6.0,9.0,49,0.00,,,-99.99,,2013-02-05 23:22:00,
2013-02-05 18:32:00,26.0,9.0,-100.00,South,185,6.0,9.0,49,0.00,,,-99.99,,2013-02-05 23:32:00,
2013-02-05 18:42:00,26.0,9.0,-100.00,South,185,4.0,9.0,49,0.00,,,-99.99,,2013-02-05 23:42:00,
2013-02-05 18:52:00,26.0,9.0,-100.00,SSW,200,4.0,7.0,49,0.00,,,-99.99,,2013-02-05 23:52:00,
2013-02-05 19:02:00,26.0,9.0,-100.00,South,185,6.0,9.0,49,0.00,,,-99.99,,2013-02-06 00:02:00,
2013-02-05 19:12:00,26.0,10.0,-100.00,South,185,3.0,7.0,50,0.00,,,-99.99,,2013-02-06 00:12:00,
2013-02-05 19:22:00,26.0,10.0,-100.00,South,185,3.0,6.0,51,0.00,,,-99.99,,2013-02-06 00:22:00,
2013-02-05 19:32:00,26.0,10.0,-100.00,South,185,4.0,7.0,51,0.00,,,-99.99,,2013-02-06 00:32:00,
2013-02-05 19:42:00,26.0,11.0,-100.00,SE,145,2.0,5.0,53,0.00,,,-99.99,,2013-02-06 00:42:00,
2013-02-05 19:52:00,25.0,11.0,-100.00,East,80,1.0,2.0,54,0.00,,,-99.99,,2013-02-06 00:52:00,
2013-02-05 20:02:00,25.0,11.0,-100.00,South,170,0.0,2.0,54,0.00,,,-99.99,,2013-02-06 01:02:00,
2013-02-05 20:12:00,25.0,11.0,-100.00,ESE,110,1.0,2.0,55,0.00,,,-99.99,,2013-02-06 01:12:00,
2013-02-05 20:22:00,25.0,11.0,-100.00,East,80,0.0,3.0,54,0.00,,,-99.99,,2013-02-06 01:22:00,
2013-02-05 20:32:00,25.0,12.0,-100.00,ENE,70,1.0,2.0,56,0.00,,,-99.99,,2013-02-06 01:32:00,
2013-02-05 20:42:00,25.0,12.0,-100.00,East,100,0.0,2.0,56,0.00,,,-99.99,,2013-02-06 01:42:00,
2013-02-05 20:52:00,25.0,12.0,-100.00,East,100,0.0,1.0,56,0.00,,,-99.99,,2013-02-06 01:52:00,
2013-02-05 21:02:00,25.0,12.0,-100.00,ENE,75,1.0,2.0,57,0.00,,,-99.99,,2013-02-06 02:02:00,
2013-02-05 21:12:00,25.0,12.0,-100.00,ESE,110,0.0,2.0,56,0.00,,,-99.99,,2013-02-06 02:12:00,
2013-02-05 21:22:00,25.0,12.0,-100.00,ESE,110,1.0,2.0,57,0.00,,,-99.99,,2013-02-06 02:22:00,
2013-02-05 21:32:00,25.0,13.0,-100.00,ENE,60,0.0,1.0,59,0.00,,,-99.99,,2013-02-06 02:32:00,
2013-02-05 21:42:00,25.0,13.0,-100.00,East,90,0.0,3.0,59,0.00,,,-99.99,,2013-02-06 02:42:00,
2013-02-05 21:52:00,25.0,13.0,-100.00,SSE,160,0.0,2.0,59,0.00,,,-99.99,,2013-02-06 02:52:00,
2013-02-05 22:03:00,25.0,13.0,-100.00,South,180,2.0,4.0,58,0.00,,,-99.99,,2013-02-06 03:03:00,
2013-02-05 22:12:00,25.0,13.0,-100.00,South,185,2.0,4.0,59,0.00,,,-99.99,,2013-02-06 03:12:00,
2013-02-05 22:22:00,26.0,14.0,-100.00,South,180,3.0,6.0,60,0.00,,,-99.99,,2013-02-06 03:22:00,
2013-02-05 22:32:00,26.0,14.0,-100.00,SSE,160,1.0,4.0,61,0.00,,,-99.99,,2013-02-06 03:32:00,
2013-02-05 22:42:00,26.0,15.0,-100.00,South,170,1.0,3.0,64,0.00,,,-99.99,,2013-02-06 03:42:00,
2013-02-05 22:52:00,25.0,15.0,-100.00,SSW,200,1.0,3.0,65,0.00,,,-99.99,,2013-02-06 03:52:00,
2013-02-05 23:02:00,25.0,16.0,-100.00,South,190,1.0,2.0,67,0.01,,,-99.99,,2013-02-06 04:02:00,
2013-02-05 23:11:00,25.0,16.0,-100.00,ENE,60,0.0,1.0,68,0.01,,,-99.99,,2013-02-06 04:11:00,
2013-02-05 23:22:00,25.0,17.0,-100.00,South,170,0.0,1.0,70,0.00,,,-99.99,,2013-02-06 04:22:00,
2013-02-05 23:32:00,25.0,17.0,-100.00,South,170,0.0,1.0,71,0.01,,,-99.99,,2013-02-06 04:32:00,
2013-02-05 23:42:00,25.0,17.0,-100.00,SSE,150,0.0,2.0,72,0.01,,,-99.99,,2013-02-06 04:42:00,
2013-02-05 23:52:00,24.0,17.0,-100.00,ENE,70,0.0,1.0,73,0.04,,,-99.99,,2013-02-06 04:52:00,